Regional Weather Roundup
Issued by NWS

Home | Current Version | Previous Version | Graphics & Text | Print | Product List | Glossary Off
Versions: 1 2 3 4 5 6 7 8 9 10 11 12 13 14 15 16 17 18 19 20 21 22 23 24 25 26 27 28 29 30 31 32 33 34 35 36 37 38 39 40 41 42 43 44 45 46 47 48 49 50

277
ASUS43 KDTX 082010
RWRMI
MICHIGAN HOURLY REGIONAL WEATHER ROUNDUP
NATIONAL WEATHER SERVICE DETROIT/PONTIAC MI
300 PM EST MON FEB 08 2016

NOTE: "FAIR" INDICATES FEW OR NO CLOUDS BELOW 12,000 FEET WITH NO
SIGNIFICANT WEATHER AND/OR OBSTRUCTION TO VISIBILITY.

MIZ047>049-052>055-059>063-066>070-074>076-081>083-082100-
SOUTHEAST LOWER MICHIGAN

CITY           SKY/WX    TMP DP  RH WIND       PRES   REMARKS
ADRIAN         CLOUDY    40  27  59 NW10      29.57R WCI  33
ALMA           PTSUNNY   41  28  61 W5G17     29.57S
ANN ARBOR      CLOUDY    41  25  53 W7        29.55S
BAD AXE        CLOUDY    40  32  74 NW5       29.55S
CARO           CLOUDY    39  30  70 W6        29.55S WCI  35
DETROIT CITY   CLOUDY    41  27  57 NW6       29.56S
DETROIT        CLOUDY    42  27  55 VRB6      29.57S
FLINT          CLOUDY    41  30  65 W8        29.56F
GROSSE ILE     CLOUDY    43  28  56 CALM      29.55S
HILLSDALE      MOSUNNY   36  29  74 W14       29.57R WCI  27
HOWELL         PTSUNNY   39  29  67 NW3       29.55F

CITY           SKY/WX    TMP DP  RH WIND       PRES   REMARKS
JACKSON        CLOUDY    39  26  59 SW10      29.56S WCI  32
LAMBERTVILLE   CLOUDY    41  29  62 N3        29.57S
LANSING        MOSUNNY   40  28  62 W10       29.57S WCI  33
LAPEER         CLOUDY    39  29  66 NW6       29.55S WCI  35
MASON          PTSUNNY   40  28  60 NW6       29.56S
MONROE         CLOUDY    42  28  59 NW7       29.55F
MT. CLEMENS    LGT RAIN  40  29  64 W8        29.53F WCI  34
PONTIAC        CLOUDY    39  27  62 NW6       29.54S WCI  35
PORT HOPE        N/A     35  32  88 NW6       29.54F WCI  30
PORT HURON     RAIN      36  36 100 N5        29.56S WCI  32
TRI CITIES     CLOUDY    42  29  59 W9        29.56S
MIDLAND        FAIR      41  25  52 NW7       29.56R
TROY           CLOUDY    41  28  58 NW6       29.57S
SAGINAW HB     CLOUDY    41  32  70 SW8       29.56S
$$
MIZ043>046-050>051-056>058-064>065-071>073-077>080-082100-
SOUTHWEST LOWER MICHIGAN

CITY           SKY/WX    TMP DP  RH WIND       PRES   REMARKS
BATTLE CREEK   CLOUDY    36  27  69 SW5       29.59R WCI  32
BENTON HARBOR  CLOUDY    33  30  88 W10       29.63R WCI  25
BIG RAPIDS     SUNNY     38  26  60 W6        29.56S WCI  34
COLDWATER      CLOUDY    37  28  70 W7        29.59S WCI  31
FREMONT        CLOUDY    37  28  72 CALM      29.58R
HOLLAND        CLOUDY    37  31  78 W8        29.60R WCI  31
GRAND RAPIDS   PTSUNNY   38  27  64 W9        29.57F WCI  31
IONIA          PTSUNNY   39  27  62 W3        29.57R
KALAMAZOO      CLOUDY    36  27  69 W9        29.59S WCI  29
LUDINGTON      CLOUDY    37  31  76 SW6       29.59S WCI  33
MARSHALL       PTSUNNY   36  26  66 W9        29.57F WCI  29
MOUNT PLEASANT MOSUNNY   41  26  55 W7        29.56S
MUSKEGON       PTSUNNY   38  31  76 W9        29.60R WCI  31
SOUTH HAVEN    CLOUDY    34  32  92 W10       29.60S WCI  26
$$
MIZ016>042-082100-
NORTHERN LOWER MICHIGAN

CITY           SKY/WX    TMP DP  RH WIND       PRES   REMARKS
ALPENA         CLOUDY    38  31  76 E6        29.56F WCI  33
BEAVER ISLAND  CLOUDY    32  29  88 NW13      29.61R WCI  23
BELLAIRE       CLOUDY    40  30  67 W6        29.58S
CADILLAC       CLOUDY    37  24  59 W6        29.54S WCI  33
CHARLEVOIX     CLOUDY    36  33  88 N9G16     29.62R WCI  29
FRANKFORT      CLOUDY    38  32  80 W5        29.59S WCI  34
GAYLORD        CLOUDY    38  27  64 W3        29.54F
GRAYLING       PTSUNNY   38  25  59 CALM      29.55F
HARBOR SPRINGS CLOUDY    38  32  79 W6        29.57S WCI  33
HOUGHTON LAKE  PTSUNNY   38  25  59 W6        29.54F WCI  33
MANISTEE       CLOUDY    36  27  69 W7        29.60S WCI  30
OSCODA         CLOUDY    38  32  79 E5        29.55S WCI  34
PELLSTON       CLOUDY    36  31  82 NW7       29.58S WCI  30
ROGERS CITY    PTSUNNY   36  32  85 N6        29.58S WCI  31
TRAVERSE CITY  CLOUDY    39  30  70 N8        29.57S WCI  33
$$
MIZ007>008-015-082100-
EASTERN UPPER MICHIGAN

CITY           SKY/WX    TMP DP  RH WIND       PRES   REMARKS
KINROSS        PTSUNNY   36  36 100 E8        29.58S WCI  29
MACKINAC ISLAN CLOUDY    35  32  87 W5        29.57S WCI  31
NEWBERRY       CLOUDY    31  27  85 NW10      29.60S WCI  22
S. S. MARIE    CLOUDY    36  32  85 E5        29.58F WCI  32
MUNISING         N/A     24  18  77 NW17G26   29.68R WCI  11
$$
MIZ004>006-011>014-085-082100-
CENTRAL UPPER MICHIGAN

CITY           SKY/WX    TMP DP  RH WIND       PRES   REMARKS
MANISTIQUE     CLOUDY    29  23  79 NW17G23   29.62S WCI  17
ESCANABA       CLOUDY    27  21  80 N8        29.66R WCI  18
MENOMINEE      CLOUDY    27  19  74 N13       29.65R WCI  16
SAWYER-GWINN   LGT SNOW  19  16  86 NW15      29.65S WCI   5
$$
MIZ001>003-009>011-084-082100-
WESTERN UPPER MICHIGAN

CITY           SKY/WX    TMP DP  RH WIND       PRES   REMARKS
IRON MOUNTAIN  SNOW      22  16  78 NW10      29.66R VSB 1/2 WCI  11
HOUGHTON       LGT SNOW  14   8  77 NW14      29.71S VSB 1   WCI  -1
COPPER HARBOR    N/A     17  13  84 N20G29    29.73R WCI   1
IRONWOOD       CLOUDY    16  12  86 NW14      29.75S WCI   1
$$

ABBREVIATIONS USED IN REMARKS
   TC - TEMPERATURE IN CELSIUS
  WCI - WIND CHILL INDEX
   HX - HEAT INDEX
  VSB - VISIBILITY





USA.gov is the U.S. government's official web portal to all federal, state and local government web resources and services.